Location: Newark
(44.1667°N, 8.2500°E)
Time: 00:40:54
(UTC+00:00)

Vanguard 2 - Pass Details

Date: 07 December 2019
Orbit: 553 x 2938 km, 32.9° (Epoch: 21 January)

Event Time Altitude Azimuth Distance (km) Brightness Sun altitude
Exits shadow 03:02:37 45° 207° (SSW) 3,650 10.5 -39.5°
Maximum altitude 03:07:27 53° 169° (S) 3,343 10.5 -38.7°
Drops below altitude 10° 03:22:18 10° 99° (E) 5,020 12.4 -36.0°
Sets 03:25:49 0° 95° (E) 5,769 13.0 -35.4°
